Time,TemperatureF,DewpointF,PressureIn,WindDirection,WindDirectionDegrees,WindSpeedMPH,WindSpeedGustMPH,Humidity,HourlyPrecipIn,Conditions,Clouds,dailyrainin,SoftwareType,DateUTC
2013-06-21 00:01:00,66.7,41.7,27.70,SE,131,0.0,0.0,40,0.00,,---,0.00,VWS V14.01,2013-06-21 04:01:00,
2013-06-21 00:06:00,66.7,41.7,27.70,SE,131,0.0,0.0,40,0.00,,---,0.00,VWS V14.01,2013-06-21 04:06:00,
2013-06-21 00:11:00,66.7,41.7,27.70,SE,131,0.0,0.0,40,0.00,,---,0.00,VWS V14.01,2013-06-21 04:11:00,
2013-06-21 00:16:00,66.7,41.7,27.70,SE,131,0.0,0.0,40,0.00,,---,0.00,VWS V14.01,2013-06-21 04:16:00,
2013-06-21 00:21:00,66.7,41.7,27.70,SE,131,0.0,0.0,40,0.00,,---,0.00,VWS V14.01,2013-06-21 04:21:00,
2013-06-21 00:26:00,66.7,41.7,27.70,SE,131,0.0,0.0,40,0.00,,---,0.00,VWS V14.01,2013-06-21 04:26:00,
2013-06-21 00:31:00,66.4,42.0,27.70,SE,131,0.0,0.0,41,0.00,,---,0.00,VWS V14.01,2013-06-21 04:31:00,
2013-06-21 00:36:00,66.4,42.0,27.70,SE,131,0.0,0.0,41,0.00,,---,0.00,VWS V14.01,2013-06-21 04:36:00,
2013-06-21 00:41:00,66.4,42.0,27.70,SE,131,0.0,0.0,41,0.00,,---,0.00,VWS V14.01,2013-06-21 04:41:00,
2013-06-21 00:46:00,66.4,42.0,27.70,SE,131,0.0,0.0,41,0.00,,---,0.00,VWS V14.01,2013-06-21 04:46:00,
2013-06-21 00:51:00,66.4,42.0,27.70,SE,131,0.0,0.0,41,0.00,,---,0.00,VWS V14.01,2013-06-21 04:51:00,
2013-06-21 00:56:00,66.4,42.0,27.70,SE,131,0.0,0.0,41,0.00,,---,0.00,VWS V14.01,2013-06-21 04:56:00,
2013-06-21 01:01:00,66.4,42.0,27.70,SE,131,0.0,0.0,41,0.00,,---,0.00,VWS V14.01,2013-06-21 05:01:00,
2013-06-21 01:06:00,66.4,42.0,27.70,SE,131,0.0,0.0,41,0.00,,---,0.00,VWS V14.01,2013-06-21 05:06:00,
2013-06-21 01:11:00,65.8,42.7,27.70,SE,131,0.0,0.0,43,0.00,,---,0.00,VWS V14.01,2013-06-21 05:11:00,
2013-06-21 01:16:00,65.7,42.6,27.70,SE,131,0.0,0.0,43,0.00,,---,0.00,VWS V14.01,2013-06-21 05:16:00,
2013-06-21 01:21:00,65.7,42.6,27.70,SE,131,0.0,0.0,43,0.00,,---,0.00,VWS V14.01,2013-06-21 05:21:00,
2013-06-21 01:26:00,65.7,43.2,27.70,SE,131,0.0,0.0,44,0.00,,---,0.00,VWS V14.01,2013-06-21 05:26:00,
2013-06-21 01:31:00,65.7,43.2,27.70,SE,131,0.0,0.0,44,0.00,,---,0.00,VWS V14.01,2013-06-21 05:31:00,
2013-06-21 01:36:00,65.7,43.2,27.70,SE,131,0.0,0.0,44,0.00,,---,0.00,VWS V14.01,2013-06-21 05:36:00,
2013-06-21 01:41:00,65.7,43.2,27.70,SE,131,0.0,0.0,44,0.00,,---,0.00,VWS V14.01,2013-06-21 05:41:00,
2013-06-21 01:46:00,65.5,43.6,27.70,SE,131,0.0,0.0,45,0.00,,---,0.00,VWS V14.01,2013-06-21 05:46:00,
2013-06-21 01:51:00,65.5,43.6,27.70,SE,131,0.0,0.0,45,0.00,,---,0.00,VWS V14.01,2013-06-21 05:51:00,
2013-06-21 01:56:00,65.5,43.6,27.70,SE,131,0.0,0.0,45,0.00,,---,0.00,VWS V14.01,2013-06-21 05:56:00,
2013-06-21 02:01:00,65.3,43.4,27.70,SE,131,0.0,0.0,45,0.00,,---,0.00,VWS V14.01,2013-06-21 06:01:00,
2013-06-21 02:06:00,65.3,43.4,27.70,SE,131,0.0,0.0,45,0.00,,---,0.00,VWS V14.01,2013-06-21 06:06:00,
2013-06-21 02:11:00,65.1,43.3,27.70,SE,131,0.0,0.0,45,0.00,,---,0.00,VWS V14.01,2013-06-21 06:11:00,
2013-06-21 02:16:00,65.1,43.3,27.70,SE,131,0.0,0.0,45,0.00,,---,0.00,VWS V14.01,2013-06-21 06:16:00,
2013-06-21 02:21:00,65.1,43.3,27.70,SE,131,0.0,0.0,45,0.00,,---,0.00,VWS V14.01,2013-06-21 06:21:00,
2013-06-21 02:26:00,65.1,43.3,27.70,SE,131,0.0,0.0,45,0.00,,---,0.00,VWS V14.01,2013-06-21 06:26:00,
2013-06-21 02:31:00,65.1,43.3,27.70,SE,131,0.0,0.0,45,0.00,,---,0.00,VWS V14.01,2013-06-21 06:31:00,
2013-06-21 02:36:00,65.1,43.3,27.70,SE,131,0.0,0.0,45,0.00,,---,0.00,VWS V14.01,2013-06-21 06:36:00,
2013-06-21 02:41:00,65.1,43.3,27.70,SE,131,0.0,0.0,45,0.00,,---,0.00,VWS V14.01,2013-06-21 06:41:00,
2013-06-21 02:46:00,65.1,43.3,27.70,SE,131,0.0,0.0,45,0.00,,---,0.00,VWS V14.01,2013-06-21 06:46:00,
2013-06-21 02:51:00,65.1,43.3,27.70,SE,131,0.0,0.0,45,0.00,,---,0.00,VWS V14.01,2013-06-21 06:51:00,
2013-06-21 02:56:00,65.1,43.3,27.70,SE,131,0.0,0.0,45,0.00,,---,0.00,VWS V14.01,2013-06-21 06:56:00,
2013-06-21 03:01:00,65.1,43.3,27.70,SE,131,0.0,0.0,45,0.00,,---,0.00,VWS V14.01,2013-06-21 07:01:00,
2013-06-21 03:06:00,65.1,43.3,27.70,SE,131,0.0,0.0,45,0.00,,---,0.00,VWS V14.01,2013-06-21 07:06:00,
2013-06-21 03:11:00,65.1,43.3,27.70,SE,131,0.0,0.0,45,0.00,,---,0.00,VWS V14.01,2013-06-21 07:11:00,
2013-06-21 03:16:00,65.1,43.3,27.70,SE,131,0.0,0.0,45,0.00,,---,0.00,VWS V14.01,2013-06-21 07:16:00,
2013-06-21 03:21:00,65.1,43.3,27.70,SE,131,0.0,0.0,45,0.00,,---,0.00,VWS V14.01,2013-06-21 07:21:00,
2013-06-21 03:26:00,65.1,43.3,27.70,SE,131,0.0,0.0,45,0.00,,---,0.00,VWS V14.01,2013-06-21 07:26:00,
2013-06-21 03:31:00,65.1,43.3,27.70,SE,131,0.0,0.0,45,0.00,,---,0.00,VWS V14.01,2013-06-21 07:31:00,
2013-06-21 03:36:00,64.0,44.5,27.70,SE,131,0.0,0.0,49,0.00,,---,0.00,VWS V14.01,2013-06-21 07:36:00,
2013-06-21 03:41:00,64.0,44.5,27.70,SE,131,0.0,0.0,49,0.00,,---,0.00,VWS V14.01,2013-06-21 07:41:00,
2013-06-21 03:46:00,64.0,44.5,27.70,SE,131,0.0,0.0,49,0.00,,---,0.00,VWS V14.01,2013-06-21 07:46:00,
2013-06-21 03:51:00,64.0,44.5,27.70,SE,131,0.0,0.0,49,0.00,,---,0.00,VWS V14.01,2013-06-21 07:51:00,
2013-06-21 03:56:00,64.0,44.5,27.70,SE,131,0.0,0.0,49,0.00,,---,0.00,VWS V14.01,2013-06-21 07:56:00,
2013-06-21 04:01:00,64.0,44.5,27.70,SE,131,0.0,0.0,49,0.00,,---,0.00,VWS V14.01,2013-06-21 08:01:00,
2013-06-21 04:06:00,64.0,44.5,27.70,SE,131,0.0,0.0,49,0.00,,---,0.00,VWS V14.01,2013-06-21 08:06:00,
2013-06-21 04:11:00,64.0,44.5,27.70,SE,131,0.0,0.0,49,0.00,,---,0.00,VWS V14.01,2013-06-21 08:11:00,
2013-06-21 04:16:00,64.0,45.0,27.70,SE,131,0.0,0.0,50,0.00,,---,0.00,VWS V14.01,2013-06-21 08:16:00,
2013-06-21 04:21:00,64.2,45.2,27.70,SE,131,0.0,0.0,50,0.00,,---,0.00,VWS V14.01,2013-06-21 08:21:00,
2013-06-21 04:26:00,64.2,45.7,27.70,SE,131,0.0,0.0,51,0.00,,---,0.00,VWS V14.01,2013-06-21 08:26:00,
2013-06-21 04:31:00,64.2,45.7,27.70,SE,131,0.0,0.0,51,0.00,,---,0.00,VWS V14.01,2013-06-21 08:31:00,
2013-06-21 04:36:00,64.2,45.7,27.70,SE,131,0.0,0.0,51,0.00,,---,0.00,VWS V14.01,2013-06-21 08:36:00,
2013-06-21 04:41:00,64.2,45.7,27.70,SE,131,0.0,0.0,51,0.00,,---,0.00,VWS V14.01,2013-06-21 08:41:00,
2013-06-21 04:46:00,64.2,45.7,27.70,SE,131,0.0,0.0,51,0.00,,---,0.00,VWS V14.01,2013-06-21 08:46:00,
2013-06-21 04:51:00,64.2,45.7,27.70,SE,131,0.0,0.0,51,0.00,,---,0.00,VWS V14.01,2013-06-21 08:51:00,
2013-06-21 04:56:00,64.2,45.7,27.70,SE,131,0.0,0.0,51,0.00,,---,0.00,VWS V14.01,2013-06-21 08:56:00,
2013-06-21 05:00:00,64.2,45.7,27.70,SE,131,0.0,0.0,51,0.00,,---,0.00,VWS V14.01,2013-06-21 09:00:00,
2013-06-21 05:05:00,64.2,45.7,27.70,SE,131,0.0,0.0,51,0.00,,---,0.00,VWS V14.01,2013-06-21 09:05:00,
2013-06-21 05:10:00,64.2,45.7,27.70,SE,131,0.0,0.0,51,0.00,,---,0.00,VWS V14.01,2013-06-21 09:10:00,
2013-06-21 05:15:00,64.2,45.7,27.70,SE,131,0.0,0.0,51,0.00,,---,0.00,VWS V14.01,2013-06-21 09:15:00,
2013-06-21 05:20:00,64.2,45.7,27.70,SE,131,0.0,0.0,51,0.00,,---,0.00,VWS V14.01,2013-06-21 09:20:00,
2013-06-21 05:25:00,64.2,45.7,27.70,SE,131,0.0,0.0,51,0.00,,---,0.00,VWS V14.01,2013-06-21 09:25:00,
2013-06-21 05:30:00,64.2,45.7,27.70,SE,131,0.0,0.0,51,0.00,,---,0.00,VWS V14.01,2013-06-21 09:30:00,
2013-06-21 05:35:00,64.2,45.7,27.70,SE,131,0.0,0.0,51,0.00,,---,0.00,VWS V14.01,2013-06-21 09:35:00,
2013-06-21 05:40:00,64.2,45.7,27.70,SE,131,0.0,0.0,51,0.00,,---,0.00,VWS V14.01,2013-06-21 09:40:00,
2013-06-21 05:45:00,64.2,45.7,27.70,SE,131,0.0,0.0,51,0.00,,---,0.00,VWS V14.01,2013-06-21 09:45:00,
2013-06-21 05:50:00,64.2,45.7,27.70,SE,131,0.0,0.0,51,0.00,,---,0.00,VWS V14.01,2013-06-21 09:50:00,
2013-06-21 05:55:00,64.2,45.7,27.70,SE,131,0.0,0.0,51,0.00,,---,0.00,VWS V14.01,2013-06-21 09:55:00,
2013-06-21 06:00:00,64.2,45.7,27.70,SE,131,0.0,0.0,51,0.00,,---,0.00,VWS V14.01,2013-06-21 10:00:00,
2013-06-21 06:05:00,64.2,45.7,27.70,SE,131,0.0,0.0,51,0.00,,---,0.00,VWS V14.01,2013-06-21 10:05:00,
2013-06-21 06:10:00,64.2,45.7,27.70,SE,131,0.0,0.0,51,0.00,,---,0.00,VWS V14.01,2013-06-21 10:10:00,
2013-06-21 06:15:00,64.2,45.7,27.70,SE,131,0.0,0.0,51,0.00,,---,0.00,VWS V14.01,2013-06-21 10:15:00,
2013-06-21 06:20:00,64.2,45.7,27.70,SE,131,0.0,0.0,51,0.00,,---,0.00,VWS V14.01,2013-06-21 10:20:00,
2013-06-21 06:25:00,63.1,45.8,27.70,SE,131,0.0,0.0,53,0.00,,---,0.00,VWS V14.01,2013-06-21 10:25:00,
2013-06-21 06:30:00,63.1,45.8,27.70,SE,131,0.0,0.0,53,0.00,,---,0.00,VWS V14.01,2013-06-21 10:30:00,
2013-06-21 06:35:00,63.1,46.2,27.70,SE,131,0.0,0.0,54,0.00,,---,0.00,VWS V14.01,2013-06-21 10:35:00,
2013-06-21 06:40:00,63.1,46.2,27.70,SE,131,0.0,0.0,54,0.00,,---,0.00,VWS V14.01,2013-06-21 10:40:00,
2013-06-21 06:45:00,63.3,46.4,27.70,SE,131,0.0,0.0,54,0.00,,---,0.00,VWS V14.01,2013-06-21 10:45:00,
2013-06-21 06:50:00,63.3,46.9,27.70,SE,131,0.0,0.0,55,0.00,,---,0.00,VWS V14.01,2013-06-21 10:50:00,
2013-06-21 06:55:00,63.5,47.1,27.70,SE,131,0.0,0.0,55,0.00,,---,0.00,VWS V14.01,2013-06-21 10:55:00,
2013-06-21 07:00:00,63.7,47.7,27.70,SE,131,0.0,0.0,56,0.00,,---,0.00,VWS V14.01,2013-06-21 11:00:00,
2013-06-21 07:05:00,63.9,47.9,27.70,SE,131,0.0,0.0,56,0.00,,---,0.00,VWS V14.01,2013-06-21 11:05:00,
2013-06-21 07:10:00,63.9,47.9,27.70,SE,131,0.0,0.0,56,0.00,,---,0.00,VWS V14.01,2013-06-21 11:10:00,
2013-06-21 07:15:00,64.0,48.0,27.70,SE,131,0.0,0.0,56,0.00,,---,0.00,VWS V14.01,2013-06-21 11:15:00,
2013-06-21 07:20:00,64.2,48.7,27.70,SE,131,0.0,0.0,57,0.00,,---,0.00,VWS V14.01,2013-06-21 11:20:00,
2013-06-21 07:25:00,64.2,48.7,27.73,SE,131,0.0,0.0,57,0.00,,---,0.00,VWS V14.01,2013-06-21 11:25:00,
2013-06-21 07:30:00,64.4,48.4,27.73,SE,131,0.0,0.0,56,0.00,,---,0.00,VWS V14.01,2013-06-21 11:30:00,
2013-06-21 07:35:00,64.6,49.0,27.73,SE,131,0.0,0.0,57,0.00,,---,0.00,VWS V14.01,2013-06-21 11:35:00,
2013-06-21 07:40:00,64.8,49.2,27.73,SE,131,0.0,0.0,57,0.00,,---,0.00,VWS V14.01,2013-06-21 11:40:00,
2013-06-21 07:45:00,64.9,49.4,27.73,SE,131,0.0,0.0,57,0.00,,---,0.00,VWS V14.01,2013-06-21 11:45:00,
2013-06-21 07:50:00,65.3,50.2,27.73,SE,131,0.0,0.0,58,0.00,,---,0.00,VWS V14.01,2013-06-21 11:50:00,
2013-06-21 07:55:00,65.5,50.3,27.73,SE,131,0.0,0.0,58,0.00,,---,0.00,VWS V14.01,2013-06-21 11:55:00,
2013-06-21 08:00:00,65.8,50.7,27.73,SE,131,0.0,0.0,58,0.00,,---,0.00,VWS V14.01,2013-06-21 12:00:00,
2013-06-21 08:05:00,66.2,51.0,27.73,SE,131,0.0,0.0,58,0.00,,---,0.00,VWS V14.01,2013-06-21 12:05:00,
2013-06-21 08:10:00,66.4,50.7,27.73,SE,130,0.0,0.0,57,0.00,,---,0.00,VWS V14.01,2013-06-21 12:10:00,
2013-06-21 08:15:00,66.6,50.4,27.73,ESE,111,0.0,0.0,56,0.00,,---,0.00,VWS V14.01,2013-06-21 12:15:00,
2013-06-21 08:20:00,66.9,50.7,27.73,ESE,110,2.2,3.1,56,0.00,,---,0.00,VWS V14.01,2013-06-21 12:20:00,
2013-06-21 08:25:00,67.1,50.4,27.73,ESE,111,0.0,2.2,55,0.00,,---,0.00,VWS V14.01,2013-06-21 12:25:00,
2013-06-21 08:30:00,67.5,49.8,27.73,ESE,111,0.0,0.0,53,0.00,,---,0.00,VWS V14.01,2013-06-21 12:30:00,
2013-06-21 08:35:00,68.0,49.2,27.73,ESE,109,2.7,2.7,51,0.00,,---,0.00,VWS V14.01,2013-06-21 12:35:00,
2013-06-21 08:40:00,68.2,47.8,27.73,ENE,76,0.0,0.0,48,0.00,,---,0.00,VWS V14.01,2013-06-21 12:40:00,
2013-06-21 08:45:00,68.4,46.8,27.73,ENE,76,0.0,0.0,46,0.00,,---,0.00,VWS V14.01,2013-06-21 12:45:00,
2013-06-21 08:50:00,68.4,46.8,27.73,East,79,0.0,0.0,46,0.00,,---,0.00,VWS V14.01,2013-06-21 12:50:00,
2013-06-21 08:55:00,68.7,46.5,27.73,ESE,108,0.0,3.1,45,0.00,,---,0.00,VWS V14.01,2013-06-21 12:55:00,
2013-06-21 09:00:00,69.1,45.7,27.73,ESE,114,2.7,4.0,43,0.00,,---,0.00,VWS V14.01,2013-06-21 13:00:00,
2013-06-21 09:05:00,69.3,43.9,27.73,East,85,2.2,2.7,40,0.00,,---,0.00,VWS V14.01,2013-06-21 13:05:00,
2013-06-21 09:10:00,69.3,42.6,27.73,SSE,165,0.0,2.2,38,0.00,,---,0.00,VWS V14.01,2013-06-21 13:10:00,
2013-06-21 09:15:00,69.6,42.2,27.73,SE,135,0.0,0.0,37,0.00,,---,0.00,VWS V14.01,2013-06-21 13:15:00,
2013-06-21 09:20:00,69.8,40.9,27.73,SE,141,0.0,3.1,35,0.00,,---,0.00,VWS V14.01,2013-06-21 13:20:00,
2013-06-21 09:25:00,70.0,41.1,27.73,SE,143,2.2,2.2,35,0.00,,---,0.00,VWS V14.01,2013-06-21 13:25:00,
2013-06-21 09:30:00,70.2,40.5,27.73,SE,142,0.0,2.2,34,0.00,,---,0.00,VWS V14.01,2013-06-21 13:30:00,
2013-06-21 09:35:00,70.5,40.8,27.73,SE,142,0.0,2.7,34,0.00,,---,0.00,VWS V14.01,2013-06-21 13:35:00,
2013-06-21 09:40:00,70.5,39.3,27.73,North,4,2.2,2.2,32,0.00,,---,0.00,VWS V14.01,2013-06-21 13:40:00,
2013-06-21 09:45:00,70.5,39.3,27.73,East,82,3.1,3.1,32,0.00,,---,0.00,VWS V14.01,2013-06-21 13:45:00,
2013-06-21 09:50:00,70.2,39.0,27.73,NE,43,0.0,0.0,32,0.00,,---,0.00,VWS V14.01,2013-06-21 13:50:00,
2013-06-21 09:55:00,70.0,38.8,27.73,ENE,72,0.0,0.0,32,0.00,,---,0.00,VWS V14.01,2013-06-21 13:55:00,
2013-06-21 10:00:00,69.8,38.6,27.73,NE,48,0.0,0.0,32,0.00,,---,0.00,VWS V14.01,2013-06-21 14:00:00,
2013-06-21 10:05:00,69.8,38.6,27.73,NW,317,0.0,2.7,32,0.00,,---,0.00,VWS V14.01,2013-06-21 14:05:00,
2013-06-21 10:10:00,69.8,38.6,27.73,ESE,107,0.0,0.0,32,0.00,,---,0.00,VWS V14.01,2013-06-21 14:10:00,
2013-06-21 10:15:00,70.0,36.3,27.73,ESE,103,2.7,4.0,29,0.00,,---,0.00,VWS V14.01,2013-06-21 14:15:00,
2013-06-21 10:20:00,70.2,36.5,27.73,SSE,153,0.0,0.0,29,0.00,,---,0.00,VWS V14.01,2013-06-21 14:20:00,
2013-06-21 10:25:00,70.7,36.9,27.73,ESE,106,3.1,3.1,29,0.00,,---,0.00,VWS V14.01,2013-06-21 14:25:00,
2013-06-21 10:30:00,71.1,34.5,27.73,ESE,106,0.0,0.0,26,0.00,,---,0.00,VWS V14.01,2013-06-21 14:30:00,
2013-06-21 10:35:00,71.2,32.6,27.73,ESE,106,0.0,0.0,24,0.00,,---,0.00,VWS V14.01,2013-06-21 14:35:00,
2013-06-21 10:40:00,71.6,32.9,27.73,ESE,109,0.0,2.2,24,0.00,,---,0.00,VWS V14.01,2013-06-21 14:40:00,
2013-06-21 10:45:00,72.3,33.5,27.73,ESE,108,0.0,0.0,24,0.00,,---,0.00,VWS V14.01,2013-06-21 14:45:00,
2013-06-21 10:50:00,73.0,34.1,27.73,ESE,108,0.0,0.0,24,0.00,,---,0.00,VWS V14.01,2013-06-21 14:50:00,
2013-06-21 10:55:00,73.4,32.3,27.73,ESE,115,3.1,3.1,22,0.00,,---,0.00,VWS V14.01,2013-06-21 14:55:00,
2013-06-21 11:00:00,73.8,31.4,27.73,ESE,122,2.2,2.2,21,0.00,,---,0.00,VWS V14.01,2013-06-21 15:00:00,
2013-06-21 11:05:00,74.1,31.7,27.73,ENE,77,0.0,2.7,21,0.00,,---,0.00,VWS V14.01,2013-06-21 15:05:00,
2013-06-21 11:10:00,74.7,32.2,27.73,East,96,3.1,3.1,21,0.00,,---,0.00,VWS V14.01,2013-06-21 15:10:00,
2013-06-21 11:15:00,74.7,25.5,27.73,ESE,104,0.0,2.2,16,0.00,,---,0.00,VWS V14.01,2013-06-21 15:15:00,
2013-06-21 11:20:00,74.5,20.5,27.73,ESE,104,0.0,0.0,13,0.00,,---,0.00,VWS V14.01,2013-06-21 15:20:00,
2013-06-21 11:25:00,74.1,20.2,27.73,SE,133,3.6,3.6,13,0.00,,---,0.00,VWS V14.01,2013-06-21 15:25:00,
2013-06-21 11:30:00,73.8,16.0,27.73,East,79,0.0,2.2,11,0.00,,---,0.00,VWS V14.01,2013-06-21 15:30:00,
2013-06-21 11:35:00,73.6,24.7,27.73,SSE,155,2.7,3.6,16,0.00,,---,0.00,VWS V14.01,2013-06-21 15:35:00,
2013-06-21 11:40:00,74.1,27.9,27.73,SSW,197,2.7,3.6,18,0.00,,---,0.00,VWS V14.01,2013-06-21 15:40:00,
2013-06-21 11:45:00,74.8,25.7,27.73,SE,142,2.2,3.1,16,0.00,,---,0.00,VWS V14.01,2013-06-21 15:45:00,
2013-06-21 11:50:00,75.9,21.6,27.73,SE,124,2.2,2.2,13,0.00,,---,0.00,VWS V14.01,2013-06-21 15:50:00,
2013-06-21 11:55:00,76.3,0.4,27.73,ENE,58,2.2,2.7,5,0.00,,---,0.00,VWS V14.01,2013-06-21 15:55:00,
2013-06-21 12:00:00,76.1,10.6,27.73,East,82,2.7,2.7,8,0.00,,---,0.00,VWS V14.01,2013-06-21 16:00:00,
2013-06-21 12:05:00,76.3,10.7,27.73,WSW,243,3.1,3.1,8,0.00,,---,0.00,VWS V14.01,2013-06-21 16:05:00,
2013-06-21 12:10:00,76.8,11.1,27.73,East,93,3.6,3.6,8,0.00,,---,0.00,VWS V14.01,2013-06-21 16:10:00,
2013-06-21 12:15:00,77.9,11.9,27.73,ESE,110,2.7,3.6,8,0.00,,---,0.00,VWS V14.01,2013-06-21 16:15:00,
2013-06-21 12:20:00,79.2,2.5,27.73,SSE,152,2.7,5.4,5,0.00,,---,0.00,VWS V14.01,2013-06-21 16:20:00,
2013-06-21 12:25:00,79.5,2.7,27.73,East,98,2.7,2.7,5,0.00,,---,0.00,VWS V14.01,2013-06-21 16:25:00,
2013-06-21 12:30:00,80.1,3.1,27.73,SW,235,2.2,2.7,5,0.00,,---,0.00,VWS V14.01,2013-06-21 16:30:00,
2013-06-21 12:35:00,79.7,-16.0,27.73,SSW,195,0.0,0.0,2,0.00,,---,0.00,VWS V14.01,2013-06-21 16:35:00,
2013-06-21 12:41:00,80.2,-15.6,27.73,ESE,115,3.6,3.6,2,0.00,,---,0.00,VWS V14.01,2013-06-21 16:41:00,
2013-06-21 12:46:00,80.4,-15.5,27.73,ESE,115,0.0,0.0,2,0.00,,---,0.00,VWS V14.01,2013-06-21 16:46:00,
2013-06-21 12:51:00,80.2,-15.6,27.73,East,84,0.0,0.0,2,0.00,,---,0.00,VWS V14.01,2013-06-21 16:51:00,
2013-06-21 12:56:00,79.7,-16.0,27.73,South,178,0.0,3.1,2,0.00,,---,0.00,VWS V14.01,2013-06-21 16:56:00,
2013-06-21 13:01:00,79.7,-16.0,27.73,SSE,147,3.1,3.1,2,0.00,,---,0.00,VWS V14.01,2013-06-21 17:01:00,
2013-06-21 13:06:00,80.4,-15.5,27.73,SE,136,3.6,4.0,2,0.00,,---,0.00,VWS V14.01,2013-06-21 17:06:00,
2013-06-21 13:11:00,81.7,-14.7,27.73,East,86,2.7,4.0,2,0.00,,---,0.00,VWS V14.01,2013-06-21 17:11:00,
2013-06-21 13:17:00,82.2,-14.4,27.73,East,82,3.6,3.6,2,0.00,,---,0.00,VWS V14.01,2013-06-21 17:17:00,
2013-06-21 13:22:00,81.5,-14.8,27.73,ENE,77,2.2,3.1,2,0.00,,---,0.00,VWS V14.01,2013-06-21 17:22:00,
2013-06-21 13:27:00,80.6,-15.4,27.73,SE,124,2.7,2.7,2,0.00,,---,0.00,VWS V14.01,2013-06-21 17:27:00,
2013-06-21 13:32:00,80.1,-15.8,27.73,SE,125,0.0,0.0,2,0.00,,---,0.00,VWS V14.01,2013-06-21 17:32:00,
2013-06-21 13:37:00,79.2,-16.3,27.73,ENE,64,5.8,5.8,2,0.00,,---,0.00,VWS V14.01,2013-06-21 17:37:00,
2013-06-21 13:42:00,79.0,-16.5,27.73,SE,145,0.0,2.2,2,0.00,,---,0.00,VWS V14.01,2013-06-21 17:42:00,
2013-06-21 13:46:00,79.9,-15.9,27.73,SE,136,3.6,3.6,2,0.00,,---,0.00,VWS V14.01,2013-06-21 17:46:00,
2013-06-21 13:51:00,81.5,-14.8,27.73,West,276,2.2,3.1,2,0.00,,---,0.00,VWS V14.01,2013-06-21 17:51:00,
2013-06-21 13:56:00,82.8,-14.0,27.73,East,92,3.6,3.6,2,0.00,,---,0.00,VWS V14.01,2013-06-21 17:56:00,
2013-06-21 14:01:00,84.2,-13.1,27.73,SE,137,2.7,3.6,2,0.00,,---,0.00,VWS V14.01,2013-06-21 18:01:00,
2013-06-21 14:06:00,85.1,-12.5,27.73,SE,136,2.7,2.7,2,0.00,,---,0.00,VWS V14.01,2013-06-21 18:06:00,
2013-06-21 14:11:00,86.2,-11.8,27.73,ESE,118,3.1,5.4,2,0.00,,---,0.00,VWS V14.01,2013-06-21 18:11:00,
2013-06-21 14:16:00,87.1,-11.3,27.73,ENE,70,0.0,0.0,2,0.00,,---,0.00,VWS V14.01,2013-06-21 18:16:00,
2013-06-21 14:22:00,87.4,-11.0,27.73,NE,52,0.0,2.2,2,0.00,,---,0.00,VWS V14.01,2013-06-21 18:22:00,
2013-06-21 14:23:00,87.4,-11.0,27.70,ENE,57,0.0,0.0,2,0.00,,---,0.00,VWS V14.01,2013-06-21 18:23:00,
2013-06-21 14:28:00,88.2,-10.6,27.70,ESE,111,2.7,3.1,2,0.00,,---,0.00,VWS V14.01,2013-06-21 18:28:00,
2013-06-21 14:33:00,88.3,-10.5,27.70,ESE,106,4.0,4.0,2,0.00,,---,0.00,VWS V14.01,2013-06-21 18:33:00,
2013-06-21 14:38:00,88.3,-10.5,27.70,SSE,158,0.0,2.2,2,0.00,,---,0.00,VWS V14.01,2013-06-21 18:38:00,
2013-06-21 14:43:00,88.7,-10.2,27.70,ENE,58,2.2,3.1,2,0.00,,---,0.00,VWS V14.01,2013-06-21 18:43:00,
2013-06-21 14:45:00,88.7,-10.2,27.70,ESE,106,3.6,3.6,2,0.00,,---,0.00,VWS V14.01,2013-06-21 18:45:00,
2013-06-21 14:46:00,88.7,-10.2,27.70,East,99,2.7,3.1,2,0.00,,---,0.00,VWS V14.01,2013-06-21 18:46:00,
2013-06-21 14:51:00,88.5,-10.3,27.70,SSW,200,2.2,2.2,2,0.00,,---,0.00,VWS V14.01,2013-06-21 18:51:00,
2013-06-21 14:56:00,88.3,-10.5,27.70,ESE,118,3.1,3.1,2,0.00,,---,0.00,VWS V14.01,2013-06-21 18:56:00,
2013-06-21 15:01:00,87.8,-10.8,27.70,East,100,3.1,3.1,2,0.00,,---,0.00,VWS V14.01,2013-06-21 19:01:00,
2013-06-21 15:06:00,86.7,-11.5,27.70,ESE,111,0.0,2.7,2,0.00,,---,0.00,VWS V14.01,2013-06-21 19:06:00,
2013-06-21 15:11:00,84.9,-12.6,27.70,ESE,116,3.1,3.1,2,0.00,,---,0.00,VWS V14.01,2013-06-21 19:11:00,
2013-06-21 15:17:00,84.4,-13.0,27.70,East,101,2.2,2.7,2,0.00,,---,0.00,VWS V14.01,2013-06-21 19:17:00,
2013-06-21 15:20:00,84.0,-13.2,27.70,SE,128,2.7,2.7,2,0.00,,---,0.00,VWS V14.01,2013-06-21 19:20:00,
2013-06-21 15:25:00,83.7,-13.4,27.70,East,101,2.7,2.7,2,0.00,,---,0.00,VWS V14.01,2013-06-21 19:25:00,
2013-06-21 15:30:00,83.3,-13.7,27.70,SE,131,2.2,2.7,2,0.00,,---,0.00,VWS V14.01,2013-06-21 19:30:00,
2013-06-21 15:35:00,82.9,-13.9,27.70,SE,142,0.0,3.1,2,0.00,,---,0.00,VWS V14.01,2013-06-21 19:35:00,
2013-06-21 15:40:00,82.2,-14.4,27.70,SE,130,0.0,0.0,2,0.00,,---,0.00,VWS V14.01,2013-06-21 19:40:00,
2013-06-21 15:42:00,81.9,-14.6,27.70,NNE,27,2.2,2.2,2,0.00,,---,0.00,VWS V14.01,2013-06-21 19:42:00,
2013-06-21 15:43:00,81.9,-14.6,27.70,NNE,26,2.2,2.2,2,0.00,,---,0.00,VWS V14.01,2013-06-21 19:43:00,
2013-06-21 15:48:00,81.7,-14.7,27.70,SSW,212,2.2,3.6,2,0.00,,---,0.00,VWS V14.01,2013-06-21 19:48:00,
2013-06-21 15:53:00,81.5,-14.8,27.70,ENE,74,2.7,2.7,2,0.00,,---,0.00,VWS V14.01,2013-06-21 19:53:00,
2013-06-21 15:58:00,81.1,-15.1,27.70,ESE,116,2.2,3.1,2,0.00,,---,0.00,VWS V14.01,2013-06-21 19:58:00,
2013-06-21 16:03:00,80.6,-15.4,27.70,ESE,119,2.7,3.1,2,0.00,,---,0.00,VWS V14.01,2013-06-21 20:03:00,
2013-06-21 16:04:00,80.4,-15.5,27.70,NE,38,0.0,2.7,2,0.00,,---,0.00,VWS V14.01,2013-06-21 20:04:00,
2013-06-21 16:09:00,80.2,-15.6,27.70,SSE,159,5.4,5.4,2,0.00,,---,0.00,VWS V14.01,2013-06-21 20:09:00,
2013-06-21 16:11:00,80.2,-15.6,27.70,SE,124,2.2,2.2,2,0.00,,---,0.00,VWS V14.01,2013-06-21 20:11:00,
2013-06-21 16:13:00,80.2,-15.6,27.70,ESE,102,4.0,4.0,2,0.00,,---,0.00,VWS V14.01,2013-06-21 20:13:00,
2013-06-21 16:18:00,80.2,-15.6,27.70,East,81,2.2,7.6,2,0.00,,---,0.00,VWS V14.01,2013-06-21 20:18:00,
2013-06-21 16:23:00,80.2,-15.6,27.67,NNE,26,2.7,2.7,2,0.00,,---,0.00,VWS V14.01,2013-06-21 20:23:00,
2013-06-21 16:28:00,80.2,-15.6,27.67,ENE,63,2.7,2.7,2,0.00,,---,0.00,VWS V14.01,2013-06-21 20:28:00,
2013-06-21 16:33:00,80.4,-15.5,27.67,ESE,102,2.2,3.6,2,0.00,,---,0.00,VWS V14.01,2013-06-21 20:33:00,
2013-06-21 16:38:00,80.4,-15.5,27.67,East,86,0.0,2.2,2,0.00,,---,0.00,VWS V14.01,2013-06-21 20:38:00,
2013-06-21 16:43:00,80.4,-15.5,27.67,ESE,107,2.2,2.2,2,0.00,,---,0.00,VWS V14.01,2013-06-21 20:43:00,
2013-06-21 16:49:00,80.8,-15.3,27.67,SE,134,0.0,2.7,2,0.00,,---,0.00,VWS V14.01,2013-06-21 20:49:00,
2013-06-21 16:54:00,80.4,-15.5,27.67,East,87,0.0,2.2,2,0.00,,---,0.00,VWS V14.01,2013-06-21 20:54:00,
2013-06-21 16:59:00,79.7,-16.0,27.67,SSE,151,0.0,2.2,2,0.00,,---,0.00,VWS V14.01,2013-06-21 20:59:00,
2013-06-21 17:04:00,79.3,-16.2,27.67,NNE,26,0.0,2.2,2,0.00,,---,0.00,VWS V14.01,2013-06-21 21:04:00,
2013-06-21 17:09:00,79.2,-16.3,27.67,NNE,26,0.0,0.0,2,0.00,,---,0.00,VWS V14.01,2013-06-21 21:09:00,
2013-06-21 17:14:00,79.0,-16.5,27.67,NNE,24,0.0,0.0,2,0.00,,---,0.00,VWS V14.01,2013-06-21 21:14:00,
2013-06-21 17:19:00,78.8,-16.6,27.67,NNE,28,0.0,0.0,2,0.00,,---,0.00,VWS V14.01,2013-06-21 21:19:00,
2013-06-21 17:24:00,78.3,-8.8,27.67,NNE,28,0.0,0.0,3,0.00,,---,0.00,VWS V14.01,2013-06-21 21:24:00,
2013-06-21 17:29:00,78.3,-8.8,27.67,East,95,0.0,0.0,3,0.00,,---,0.00,VWS V14.01,2013-06-21 21:29:00,
2013-06-21 17:34:00,78.1,-9.0,27.67,East,95,0.0,0.0,3,0.00,,---,0.00,VWS V14.01,2013-06-21 21:34:00,
2013-06-21 17:39:00,78.1,-9.0,27.67,East,95,0.0,0.0,3,0.00,,---,0.00,VWS V14.01,2013-06-21 21:39:00,
2013-06-21 17:44:00,77.7,-9.2,27.67,WSW,244,0.0,2.7,3,0.00,,---,0.00,VWS V14.01,2013-06-21 21:44:00,
2013-06-21 17:49:00,77.5,-9.3,27.67,WSW,244,0.0,0.0,3,0.00,,---,0.00,VWS V14.01,2013-06-21 21:49:00,
2013-06-21 17:54:00,77.2,-9.6,27.67,WSW,246,0.0,0.0,3,0.00,,---,0.00,VWS V14.01,2013-06-21 21:54:00,
2013-06-21 17:59:00,77.0,-9.7,27.67,WSW,246,0.0,2.7,3,0.00,,---,0.00,VWS V14.01,2013-06-21 21:59:00,
2013-06-21 18:04:00,76.8,-9.8,27.67,WSW,246,0.0,2.2,3,0.00,,---,0.00,VWS V14.01,2013-06-21 22:04:00,
2013-06-21 18:09:00,76.6,-9.9,27.67,WSW,258,0.0,0.0,3,0.00,,---,0.00,VWS V14.01,2013-06-21 22:09:00,
2013-06-21 18:14:00,76.3,-10.2,27.67,WSW,258,0.0,0.0,3,0.00,,---,0.00,VWS V14.01,2013-06-21 22:14:00,
2013-06-21 18:19:00,76.1,-10.3,27.67,North,2,0.0,0.0,3,0.00,,---,0.00,VWS V14.01,2013-06-21 22:19:00,
2013-06-21 18:24:00,75.9,-10.4,27.67,North,2,2.7,2.7,3,0.00,,---,0.00,VWS V14.01,2013-06-21 22:24:00,
2013-06-21 18:29:00,76.1,-10.3,27.67,NE,37,2.7,4.0,3,0.00,,---,0.00,VWS V14.01,2013-06-21 22:29:00,
2013-06-21 18:34:00,75.9,-10.4,27.67,North,357,0.0,0.0,3,0.00,,---,0.00,VWS V14.01,2013-06-21 22:34:00,
2013-06-21 18:39:00,75.6,-10.6,27.67,NE,41,2.2,2.2,3,0.00,,---,0.00,VWS V14.01,2013-06-21 22:39:00,
2013-06-21 18:44:00,75.6,-10.6,27.67,NE,56,3.6,3.6,3,0.00,,---,0.00,VWS V14.01,2013-06-21 22:44:00,
2013-06-21 18:49:00,75.2,-10.9,27.67,ENE,58,2.2,2.2,3,0.00,,---,0.00,VWS V14.01,2013-06-21 22:49:00,
2013-06-21 18:54:00,74.8,-11.1,27.67,ENE,58,0.0,0.0,3,0.00,,---,0.00,VWS V14.01,2013-06-21 22:54:00,
2013-06-21 18:59:00,74.7,-11.2,27.67,NE,38,0.0,0.0,3,0.00,,---,0.00,VWS V14.01,2013-06-21 22:59:00,
2013-06-21 19:04:00,74.7,-11.2,27.67,NE,38,0.0,0.0,3,0.00,,---,0.00,VWS V14.01,2013-06-21 23:04:00,
2013-06-21 19:09:00,74.3,-11.5,27.67,NE,38,0.0,0.0,3,0.00,,---,0.00,VWS V14.01,2013-06-21 23:09:00,
2013-06-21 19:14:00,74.1,-11.6,27.67,NE,38,0.0,0.0,3,0.00,,---,0.00,VWS V14.01,2013-06-21 23:14:00,
2013-06-21 19:19:00,74.1,-11.6,27.67,NE,48,0.0,2.2,3,0.00,,---,0.00,VWS V14.01,2013-06-21 23:19:00,
2013-06-21 19:24:00,73.8,-11.9,27.67,NE,48,0.0,0.0,3,0.00,,---,0.00,VWS V14.01,2013-06-21 23:24:00,
2013-06-21 19:29:00,73.6,-12.0,27.67,NE,48,0.0,2.2,3,0.00,,---,0.00,VWS V14.01,2013-06-21 23:29:00,
2013-06-21 19:34:00,73.4,-12.1,27.67,NE,48,0.0,0.0,3,0.00,,---,0.00,VWS V14.01,2013-06-21 23:34:00,
2013-06-21 19:39:00,73.2,-6.4,27.67,NE,48,0.0,0.0,4,0.00,,---,0.00,VWS V14.01,2013-06-21 23:39:00,
2013-06-21 19:44:00,73.0,-6.5,27.67,NE,48,0.0,0.0,4,0.00,,---,0.00,VWS V14.01,2013-06-21 23:44:00,
2013-06-21 19:49:00,72.9,-6.6,27.67,NE,48,0.0,0.0,4,0.00,,---,0.00,VWS V14.01,2013-06-21 23:49:00,
2013-06-21 19:54:00,72.5,-6.9,27.67,NE,48,0.0,0.0,4,0.00,,---,0.00,VWS V14.01,2013-06-21 23:54:00,
2013-06-21 19:59:00,72.1,-7.1,27.67,NE,48,0.0,0.0,4,0.00,,---,0.00,VWS V14.01,2013-06-21 23:59:00,
2013-06-21 20:04:00,72.0,1.2,27.67,NE,48,0.0,0.0,6,0.00,,---,0.00,VWS V14.01,2013-06-22 00:04:00,
2013-06-21 20:09:00,71.6,1.0,27.67,NE,48,0.0,0.0,6,0.00,,---,0.00,VWS V14.01,2013-06-22 00:09:00,
2013-06-21 20:14:00,71.4,4.2,27.67,NE,48,0.0,0.0,7,0.00,,---,0.00,VWS V14.01,2013-06-22 00:14:00,
2013-06-21 20:19:00,71.2,4.0,27.67,NE,48,0.0,0.0,7,0.00,,---,0.00,VWS V14.01,2013-06-22 00:19:00,
2013-06-21 20:24:00,71.1,3.9,27.67,NE,48,0.0,0.0,7,0.00,,---,0.00,VWS V14.01,2013-06-22 00:24:00,
2013-06-21 20:29:00,70.9,3.8,27.67,NE,48,0.0,0.0,7,0.00,,---,0.00,VWS V14.01,2013-06-22 00:29:00,
2013-06-21 20:34:00,70.5,9.0,27.67,NE,48,0.0,0.0,9,0.00,,---,0.00,VWS V14.01,2013-06-22 00:34:00,
2013-06-21 20:39:00,70.3,8.9,27.67,NE,48,0.0,0.0,9,0.00,,---,0.00,VWS V14.01,2013-06-22 00:39:00,
2013-06-21 20:44:00,70.2,8.7,27.67,NE,48,0.0,0.0,9,0.00,,---,0.00,VWS V14.01,2013-06-22 00:44:00,
2013-06-21 20:49:00,70.0,15.1,27.67,NE,48,0.0,0.0,12,0.00,,---,0.00,VWS V14.01,2013-06-22 00:49:00,
2013-06-21 20:54:00,69.8,14.9,27.67,NE,48,0.0,0.0,12,0.00,,---,0.00,VWS V14.01,2013-06-22 00:54:00,
2013-06-21 20:59:00,69.8,18.5,27.67,NE,48,0.0,0.0,14,0.00,,---,0.00,VWS V14.01,2013-06-22 00:59:00,
2013-06-21 21:04:00,69.6,22.9,27.67,NE,48,0.0,0.0,17,0.00,,---,0.00,VWS V14.01,2013-06-22 01:04:00,
2013-06-21 21:09:00,69.4,22.8,27.67,NE,48,0.0,0.0,17,0.00,,---,0.00,VWS V14.01,2013-06-22 01:09:00,
2013-06-21 21:14:00,69.4,26.7,27.67,NE,48,0.0,0.0,20,0.00,,---,0.00,VWS V14.01,2013-06-22 01:14:00,
2013-06-21 21:19:00,69.3,28.8,27.67,NE,48,0.0,0.0,22,0.00,,---,0.00,VWS V14.01,2013-06-22 01:19:00,
2013-06-21 21:24:00,69.1,28.7,27.67,NE,49,0.0,0.0,22,0.00,,---,0.00,VWS V14.01,2013-06-22 01:24:00,
2013-06-21 21:29:00,68.9,28.5,27.67,NE,48,0.0,0.0,22,0.00,,---,0.00,VWS V14.01,2013-06-22 01:29:00,
2013-06-21 21:34:00,68.7,29.5,27.67,NE,48,0.0,0.0,23,0.00,,---,0.00,VWS V14.01,2013-06-22 01:34:00,
2013-06-21 21:39:00,68.5,29.3,27.67,NE,48,0.0,0.0,23,0.00,,---,0.00,VWS V14.01,2013-06-22 01:39:00,
2013-06-21 21:44:00,68.4,30.2,27.67,NE,48,0.0,0.0,24,0.00,,---,0.00,VWS V14.01,2013-06-22 01:44:00,
2013-06-21 21:49:00,68.2,30.0,27.67,NE,48,0.0,0.0,24,0.00,,---,0.00,VWS V14.01,2013-06-22 01:49:00,
2013-06-21 21:54:00,68.2,30.0,27.67,NE,48,0.0,0.0,24,0.00,,---,0.00,VWS V14.01,2013-06-22 01:54:00,
2013-06-21 21:59:00,68.2,31.0,27.67,NE,48,0.0,0.0,25,0.00,,---,0.00,VWS V14.01,2013-06-22 01:59:00,
2013-06-21 22:04:00,68.2,31.0,27.67,NE,48,0.0,0.0,25,0.00,,---,0.00,VWS V14.01,2013-06-22 02:04:00,
2013-06-21 22:09:00,68.2,32.0,27.70,NE,48,0.0,0.0,26,0.00,,---,0.00,VWS V14.01,2013-06-22 02:09:00,
2013-06-21 22:14:00,68.2,32.0,27.70,NE,48,0.0,0.0,26,0.00,,---,0.00,VWS V14.01,2013-06-22 02:14:00,
2013-06-21 22:19:00,68.2,33.0,27.70,NE,48,0.0,0.0,27,0.00,,---,0.00,VWS V14.01,2013-06-22 02:19:00,
2013-06-21 22:24:00,68.0,32.8,27.70,NE,48,0.0,0.0,27,0.00,,---,0.00,VWS V14.01,2013-06-22 02:24:00,
2013-06-21 22:29:00,67.8,32.7,27.70,NE,48,0.0,0.0,27,0.00,,---,0.00,VWS V14.01,2013-06-22 02:29:00,
2013-06-21 22:34:00,67.8,33.5,27.70,NE,48,0.0,0.0,28,0.00,,---,0.00,VWS V14.01,2013-06-22 02:34:00,
2013-06-21 22:39:00,67.8,32.7,27.70,NE,48,0.0,0.0,27,0.00,,---,0.00,VWS V14.01,2013-06-22 02:39:00,
2013-06-21 22:44:00,67.8,32.7,27.70,NE,48,0.0,0.0,27,0.00,,---,0.00,VWS V14.01,2013-06-22 02:44:00,
2013-06-21 22:49:00,67.8,33.5,27.70,NE,48,0.0,0.0,28,0.00,,---,0.00,VWS V14.01,2013-06-22 02:49:00,
2013-06-21 22:54:00,67.8,33.5,27.70,NE,48,0.0,0.0,28,0.00,,---,0.00,VWS V14.01,2013-06-22 02:54:00,
2013-06-21 22:59:00,67.8,34.4,27.70,NE,49,0.0,0.0,29,0.00,,---,0.00,VWS V14.01,2013-06-22 02:59:00,
2013-06-21 23:04:00,67.6,34.3,27.70,NE,48,0.0,0.0,29,0.00,,---,0.00,VWS V14.01,2013-06-22 03:04:00,
2013-06-21 23:09:00,67.5,34.1,27.70,NE,48,0.0,0.0,29,0.00,,---,0.00,VWS V14.01,2013-06-22 03:09:00,
2013-06-21 23:14:00,67.3,34.8,27.70,NE,49,0.0,0.0,30,0.00,,---,0.00,VWS V14.01,2013-06-22 03:14:00,
2013-06-21 23:19:00,67.1,35.5,27.70,NE,48,0.0,0.0,31,0.00,,---,0.00,VWS V14.01,2013-06-22 03:19:00,
2013-06-21 23:24:00,67.1,36.3,27.70,NE,48,0.0,0.0,32,0.00,,---,0.00,VWS V14.01,2013-06-22 03:24:00,
2013-06-21 23:29:00,67.1,36.3,27.70,NE,48,0.0,0.0,32,0.00,,---,0.00,VWS V14.01,2013-06-22 03:29:00,
2013-06-21 23:34:00,67.1,37.1,27.70,NE,48,0.0,0.0,33,0.00,,---,0.00,VWS V14.01,2013-06-22 03:34:00,
2013-06-21 23:39:00,67.1,37.1,27.70,NE,48,0.0,0.0,33,0.00,,---,0.00,VWS V14.01,2013-06-22 03:39:00,
2013-06-21 23:44:00,67.1,37.1,27.70,NE,48,0.0,0.0,33,0.00,,---,0.00,VWS V14.01,2013-06-22 03:44:00,
2013-06-21 23:49:00,67.1,37.1,27.70,NE,48,0.0,0.0,33,0.00,,---,0.00,VWS V14.01,2013-06-22 03:49:00,
2013-06-21 23:54:00,66.9,36.9,27.70,NE,48,0.0,0.0,33,0.00,,---,0.00,VWS V14.01,2013-06-22 03:54:00,
2013-06-21 23:59:00,66.7,36.8,27.70,NE,48,0.0,0.0,33,0.00,,---,0.00,VWS V14.01,2013-06-22 03:59:00,